Tracking 19280 objects as of 14-Nov-2018
HD Live streaming from Space Station
objects crossing your sky now

INTELSAT 3-F8

Track INTELSAT 3-F8 now!
INTELSAT 3-F8 is classified as:


NORAD ID: 4478
Int'l Code: 1970-055A
Perigee: 33,842.9 km
Apogee: 36,644.6 km
Inclination: 1.2 °
Period: 1,408.1 minutes
Semi major axis: 41614 km
RCS: 2.5127 m2 (large)
Launch date: July 23, 1970
Source: International Telecommunications Satellite Organization (ITSO)
Launch site: AIR FORCE EASTERN TEST RANGE (AFETR)
aabbcc
Your satellite tracking list
Your tracking list is empty




NASA's NSSDC Master Catalog

Two Line Element Set (TLE):
1  4478U 70055A   18317.56273976 -.00000279 +00000-0 +00000-0 0  9994
2  4478 001.2180 299.6153 0336614 190.5619 020.3995 01.02266168094470
Source of the keplerian elements: AFSPC